Temp
-5 -5 -5 -5 -5 -5 -5 -5 -5 -5 -4 -5 -5 -5 -5 -5 -5 -5 -5 -5 -5 -5 -5 -5 -6 -6 -6 -5 -6 -5 -5 -5 -4 -5 -5 -5 -5 -5 -5 -5 -4 -5 -5 -5 -5 -5 -6 -6 -6
-5 -5 -5 -5 -7 -8 -5 -5 -4 -4 -4 -5 -5 -5 -5 -6 -5 -5 -6 -5 -5 -5 -6 -6 -6 -6 -7 -6 -5 -5 -5 -5 -5 -5 -5 -5 -5 -5 -5 -5 -4 -5 -5 -5 -5 -5 -6 -6 -6
-5 -5 -6 -4 -6 -7 -5 -5 -5 -5 -5 -5 -5 -5 -6 -6 -6 -5 -5 -6 -6 -5 -7 -8 -8 -7 -6 -6 -6 -5 -5 -5 -5 -5 -5 -5 -5 -5 -5 -5 -5 -5 -5 -5 -5 -5 -5 -6 -6
-4 -5 -5 -7 -7 -7 -6 -6 -6 -6 -6 -6 -6 -6 -6 -7 -6 -6 -6 -6 -7 -7 -7 -8 -8 -6 -6 -6 -5 -5 -5 -5 -5 -5 -5 -5 -5 -5 -5 -5 -5 -5 -5 -5 -5 -6 -6 -6 -6
-5 -5 -4 -6 -6 -5 -6 -6 -6 -7 -7 -7 -7 -7 -7 -7 -7 -7 -8 -7 -7 -7 -7 -7 -6 -5 -6 -5 -5 -5 -5 -5 -5 -5 -5 -5 -5 -5 -5 -5 -5 -5 -5 -5 -5 -6 -6 -6 -6
-5 -4 -6 -6 -5 -6 -6 -6 -7 -7 -7 -7 -7 -8 -8 -8 -7 -7 -8 -7 -8 -7 -6 -6 -6 -6 -6 -5 -5 -5 -5 -5 -5 -5 -5 -5 -5 -5 -5 -5 -5 -5 -5 -6 -6 -6 -6 -6 -6
-5 -4 -7 -6 -5 -6 -6 -6 -6 -7 -7 -7 -7 -7 -8 -8 -8 -8 -8 -7 -7 -7 -6 -6 -6 -6 -6 -5 -6 -6 -5 -5 -5 -5 -5 -5 -5 -5 -5 -5 -5 -5 -6 -6 -6 -6 -6 -6 -6
-4 -4 -5 -5 -5 -6 -6 -6 -6 -6 -7 -7 -7 -7 -7 -7 -8 -8 -8 -8 -8 -7 -7 -6 -6 -6 -6 -6 -6 -6 -5 -5 -5 -5 -5 -5 -5 -5 -5 -5 -5 -5 -5 -6 -6 -6 -6 -6 -6
-6 -7 -6 -5 -7 -5 -6 -6 -6 -6 -7 -7 -7 -7 -7 -8 -8 -8 -8 -8 -8 -7 -7 -7 -6 -6 -6 -6 -6 -5 -5 -5 -5 -5 -5 -5 -5 -5 -5 -5 -5 -5 -5 -5 -6 -6 -6 -6 -6
-4 -4 -6 -5 -6 -6 -6 -6 -6 -6 -6 -7 -7 -7 -7 -7 -7 -8 -7 -7 -7 -7 -6 -6 -6 -6 -6 -6 -5 -5 -5 -5 -5 -5 -5 -5 -5 -5 -5 -5 -5 -5 -5 -5 -5 -5 -6 -6 -6
-5 -5 -5 -5 -6 -6 -6 -6 -6 -6 -6 -6 -7 -7 -7 -7 -7 -7 -7 -6 -6 -6 -6 -6 -6 -6 -6 -5 -5 -5 -5 -5 -5 -5 -5 -5 -5 -5 -5 -5 -6 -6 -6 -5 -5 -5 -6 -6 -6
-7 -6 -6 -6 -6 -6 -6 -5 -5 -6 -6 -6 -7 -7 -7 -7 -6 -6 -6 -6 -6 -6 -6 -6 -6 -6 -6 -6 -5 -5 -5 -5 -5 -5 -5 -5 -5 -5 -5 -6 -6 -6 -4 -5 -6 -6 -6 -6 -6
-8 -7 -7 -6 -6 -6 -6 -6 -5 -5 -6 -6 -6 -6 -6 -7 -6 -6 -7 -6 -6 -6 -6 -6 -6 -6 -6 -6 -6 -5 -5 -5 -5 -5 -5 -5 -5 -5 -6 -6 -5 -5 -5 -5 -6 -6 -6 -6 -5
-7 -7 -7 -7 -6 -5 -5 -6 -5 -5 -5 -5 -6 -6 -6 -6 -6 -6 -6 -6 -6 -6 -6 -6 -6 -6 -5 -5 -5 -5 -5 -5 -5 -5 -5 -5 -5 -5 -5 -5 -5 -5 -5 -5 -5 -5 -6 -6 -5
-7 -7 -7 -7 -6 -5 -5 -5 -5 -6 -5 -5 -5 -6 -6 -6 -6 -6 -6 -6 -6 -6 -6 -6 -6 -5 -5 -5 -5 -5 -5 -5 -5 -5 -5 -5 -5 -5 -5 -5 -5 -5 -6 -6 -5 -5 -5 -6 -5
-6 -7 -7 -7 -7 -5 -5 -6 -5 -6 -5 -5 -5 -5 -6 -6 -5 -5 -6 -6 -6 -6 -6 -6 -5 -5 -5 -5 -5 -5 -5 -5 -5 -5 -5 -5 -5 -5 -5 -5 -5 -5 -5 -5 -5 -6 -6 -6 -6
-7 -7 -7 -7 -7 -7 -5 -5 -5 -6 -5 -5 -5 -5 -5 -5 -5 -5 -6 -5 -5 -5 -5 -5 -5 -5 -5 -5 -5 -5 -5 -5 -5 -5 -5 -5 -5 -5 -5 -5 -5 -5 -6 -5 -5 -5 -6 -6 -6
-6 -7 -7 -7 -7 -7 -6 -6 -5 -5 -5 -5 -5 -5 -5 -5 -5 -5 -5 -6 -5 -5 -5 -5 -5 -5 -5 -5 -5 -5 -5 -5 -5 -5 -5 -5 -5 -6 -5 -5 -5 -5 -6 -6 -6 -6 -6 -6 -6
-7 -7 -7 -7 -7 -7 -6 -6 -5 -5 -5 -5 -5 -5 -4 -5 -5 -5 -5 -5 -5 -5 -5 -5 -5 -5 -5 -5 -5 -5 -5 -5 -5 -5 -5 -6 -6 -6 -6 -5 -5 -6 -6 -6 -6 -6 -6 -6 -6
-7 -6 -6 -7 -7 -6 -6 -6 -6 -5 -5 -5 -5 -5 -5 -5 -5 -5 -5 -5 -5 -5 -5 -5 -5 -5 -5 -5 -5 -5 -5 -5 -5 -5 -5 -6 -6 -6 -6 -6 -6 -6 -5 -6 -6 -6 -6 -6 -6
-6 -7 -7 -7 -7 -7 -7 -6 -6 -6 -5 -5 -5 -5 -5 -5 -5 -5 -5 -5 -5 -5 -5 -5 -5 -5 -5 -5 -5 -5 -5 -5 -5 -5 -5 -6 -6 -6 -6 -6 -6 -6 -6 -6 -6 -6 -6 -6 -6
-6 -6 -6 -6 -6 -6 -6 -5 -5 -5 -5 -5 -5 -5 -5 -5 -5 -5 -5 -5 -5 -5 -5 -5 -5 -5 -5 -5 -5 -5 -5 -5 -5 -5 -5 -6 -6 -6 -6 -6 -6 -6 -6 -6 -6 -6 -6 -6 -6
-7 -6 -6 -5 -5 -5 -6 -6 -7 -5 -5 -5 -6 -6 -6 -5 -5 -5 -5 -5 -4 -5 -4 -4 -5 -5 -5 -5 -5 -5 -5 -5 -5 -5 -5 -6 -6 -6 -6 -6 -6 -6 -6 -6 -6 -6 -6 -7 -7
-6 -6 -5 -5 -5 -5 -5 -5 -6 -5 -5 -5 -5 -6 -6 -6 -5 -5 -5 -5 -5 -5 -5 -4 -5 -5 -5 -5 -5 -5 -5 -5 -6 -6 -6 -6 -6 -6 -5 -6 -6 -6 -6 -6 -7 -7 -7 -7 -7
-6 -7 -5 -4 -4 -6 -5 -6 -6 -6 -6 -6 -5 -6 -6 -6 -6 -6 -5 -5 -5 -5 -5 -5 -5 -5 -5 -5 -5 -5 -5 -5 -6 -6 -6 -6 -6 -6 -6 -6 -6 -6 -7 -7 -7 -7 -7 -7 -7
-7 -6 -5 -5 -4 -5 -5 -5 -6 -6 -6 -6 -6 -5 -6 -7 -8 -6 -6 -5 -5 -5 -5 -5 -5 -5 -6 -5 -5 -5 -6 -6 -6 -6 -6 -6 -6 -6 -5 -6 -6 -6 -6 -6 -7 -6 -6 -8 -8
-7 -6 -6 -5 -4 -4 -5 -6 -6 -7 -6 -6 -6 -6 -6 -7 -6 -6 -6 -6 -6 -6 -6 -5 -6 -6 -6 -6 -5 -5 -6 -6 -6 -6 -6 -6 -6 -6 -6 -5 -5 -6 -6 -6 -7 -7 -6 -7 -8
-6 -7 -6 -5 -5 -4 -5 -7 -6 -6 -6 -6 -6 -6 -6 -6 -6 -6 -6 -6 -6 -6 -6 -6 -6 -6 -6 -6 -6 -6 -6 -6 -5 -5 -5 -5 -5 -5 -5 -6 -6 -6 -6 -6 -6 -6 -7 -7 -7
-6 -6 -6 -5 -5 -5 -5 -6 -6 -6 -6 -6 -6 -6 -6 -6 -6 -6 -6 -6 -7 -7 -7 -6 -6 -6 -6 -6 -6 -6 -6 -6 -6 -5 -5 -5 -5 -5 -5 -5 -5 -6 -6 -6 -7 -7 -7 -7 -7
-7 -6 -6 -5 -6 -5 -5 -6 -6 -6 -6 -7 -6 -6 -6 -6 -6 -6 -6 -6 -7 -7 -7 -6 -6 -6 -6 -6 -6 -6 -6 -6 -6 -6 -6 -6 -5 -5 -5 -5 -6 -6 -6 -6 -7 -7 -7 -7 -8
Height
5894 5894 5894 5896 5900 5896 5895 5896 5895 5895 5895 5894 5894 5895 5895 5895 5894 5896 5892 5892 5893 5891 5890 5894 5897 5901 5904 5909 5911 5913 5913 5913 5915 5917 5918 5919 5919 5919 5921 5921 5921 5921 5920 5919 5919 5918 5918 5917 5916
5898 5898 5898 5899 5899 5901 5898 5897 5896 5896 5895 5895 5895 5894 5895 5895 5894 5892 5892 5894 5896 5895 5893 5895 5898 5903 5905 5909 5912 5915 5916 5916 5918 5920 5920 5921 5922 5922 5923 5923 5924 5923 5923 5921 5921 5920 5920 5920 5918
5899 5899 5900 5900 5901 5900 5900 5900 5899 5898 5897 5896 5895 5895 5895 5895 5895 5895 5894 5895 5894 5896 5897 5900 5904 5907 5908 5912 5913 5915 5917 5919 5921 5922 5923 5923 5924 5925 5925 5926 5927 5925 5925 5924 5923 5923 5922 5922 5921
5901 5902 5902 5900 5901 5901 5901 5900 5899 5898 5897 5896 5896 5895 5895 5895 5896 5896 5896 5897 5897 5898 5899 5902 5908 5912 5907 5914 5916 5917 5918 5921 5923 5924 5926 5926 5927 5927 5927 5928 5929 5928 5928 5927 5926 5925 5925 5924 5923
5900 5900 5894 5901 5901 5901 5901 5901 5900 5899 5898 5897 5896 5896 5896 5896 5898 5897 5898 5899 5903 5905 5906 5909 5912 5914 5910 5917 5918 5918 5920 5925 5926 5926 5928 5929 5930 5930 5930 5930 5930 5931 5930 5929 5928 5927 5927 5926 5925
5899 5902 5900 5903 5902 5902 5901 5901 5900 5900 5899 5898 5898 5897 5897 5897 5897 5897 5899 5902 5905 5909 5911 5913 5914 5915 5916 5920 5920 5921 5924 5927 5929 5929 5930 5931 5932 5932 5932 5933 5933 5932 5931 5930 5930 5929 5929 5928 5927
5898 5897 5907 5903 5903 5903 5903 5902 5903 5903 5901 5899 5898 5899 5898 5899 5898 5898 5901 5904 5909 5912 5914 5915 5916 5918 5921 5923 5922 5924 5927 5927 5931 5932 5932 5934 5935 5935 5935 5935 5934 5934 5933 5932 5932 5931 5930 5929 5929
5906 5904 5904 5903 5904 5905 5905 5905 5905 5905 5903 5901 5899 5900 5900 5900 5901 5901 5902 5907 5910 5913 5916 5918 5921 5922 5922 5924 5926 5927 5928 5930 5932 5933 5935 5936 5937 5937 5936 5936 5936 5935 5934 5933 5933 5932 5931 5931 5930
5901 5903 5905 5902 5900 5905 5906 5906 5906 5906 5904 5902 5901 5901 5901 5899 5902 5904 5905 5908 5912 5916 5919 5921 5923 5923 5925 5926 5927 5930 5930 5932 5934 5936 5936 5938 5938 5939 5938 5937 5937 5936 5935 5935 5934 5933 5932 5932 5931
5900 5893 5908 5908 5906 5909 5908 5908 5908 5908 5907 5906 5904 5904 5904 5902 5904 5907 5909 5911 5913 5916 5920 5923 5924 5926 5926 5928 5929 5932 5933 5934 5936 5938 5939 5940 5940 5939 5939 5938 5937 5937 5936 5936 5935 5935 5934 5933 5933
5910 5908 5909 5911 5911 5910 5909 5910 5910 5910 5910 5909 5907 5907 5907 5906 5907 5910 5913 5914 5917 5919 5921 5923 5925 5927 5928 5931 5932 5933 5935 5937 5939 5940 5940 5940 5940 5940 5939 5939 5938 5937 5936 5936 5934 5934 5934 5934 5935
5914 5910 5911 5912 5913 5912 5912 5912 5912 5912 5912 5911 5910 5911 5911 5910 5910 5913 5915 5916 5918 5921 5922 5924 5928 5930 5931 5933 5934 5936 5937 5940 5941 5942 5941 5942 5942 5941 5940 5939 5938 5938 5931 5936 5934 5934 5934 5934 5934
5919 5915 5914 5915 5914 5914 5914 5914 5914 5914 5914 5914 5914 5915 5915 5914 5915 5917 5918 5919 5920 5922 5925 5928 5930 5932 5934 5935 5936 5938 5940 5941 5941 5942 5943 5943 5942 5941 5940 5939 5938 5938 5938 5934 5932 5933 5933 5933 5933
5923 5921 5919 5918 5917 5916 5916 5915 5916 5916 5917 5917 5917 5918 5919 5919 5918 5920 5922 5924 5925 5927 5930 5931 5932 5933 5935 5937 5938 5939 5941 5941 5942 5942 5943 5942 5942 5942 5940 5939 5938 5936 5933 5928 5929 5931 5931 5929 5931
5928 5925 5925 5922 5919 5918 5915 5916 5918 5918 5919 5920 5920 5920 5922 5923 5923 5923 5924 5926 5928 5929 5930 5931 5933 5935 5937 5938 5939 5940 5941 5942 5942 5943 5943 5942 5943 5942 5941 5940 5939 5937 5932 5929 5929 5929 5929 5929 5931
5929 5928 5926 5926 5922 5920 5905 5913 5921 5921 5921 5921 5923 5923 5924 5925 5925 5925 5926 5927 5929 5930 5932 5934 5935 5936 5937 5939 5940 5941 5942 5943 5944 5943 5943 5943 5943 5942 5942 5940 5939 5937 5934 5932 5931 5928 5929 5931 5932
5941 5939 5934 5929 5926 5923 5924 5924 5924 5923 5923 5923 5924 5925 5925 5926 5927 5927 5928 5929 5930 5932 5934 5935 5937 5938 5940 5940 5941 5943 5943 5943 5944 5943 5943 5943 5943 5943 5942 5941 5939 5938 5937 5936 5934 5933 5933 5933 5933
5937 5940 5937 5932 5928 5926 5925 5927 5926 5926 5925 5925 5926 5926 5926 5927 5928 5929 5929 5930 5931 5933 5934 5936 5938 5939 5941 5942 5943 5944 5944 5944 5944 5943 5944 5943 5943 5943 5943 5942 5941 5940 5939 5938 5937 5937 5936 5936 5935
5937 5939 5939 5933 5930 5928 5928 5928 5928 5928 5927 5927 5927 5927 5928 5927 5928 5929 5930 5931 5932 5933 5935 5937 5938 5940 5942 5943 5944 5945 5945 5944 5944 5944 5943 5943 5943 5944 5943 5942 5941 5940 5940 5938 5938 5937 5938 5938 5935
5939 5942 5940 5934 5932 5932 5932 5931 5931 5930 5929 5928 5929 5928 5928 5928 5928 5929 5930 5930 5931 5933 5935 5937 5940 5942 5943 5943 5944 5945 5945 5944 5944 5943 5943 5942 5942 5942 5942 5942 5941 5941 5940 5939 5939 5938 5938 5938 5937
5943 5940 5937 5935 5934 5934 5936 5933 5931 5931 5929 5928 5928 5928 5929 5929 5929 5929 5930 5930 5931 5932 5935 5937 5939 5942 5943 5943 5944 5944 5944 5944 5944 5943 5943 5942 5941 5942 5943 5943 5942 5941 5941 5941 5940 5940 5940 5939 5939
5945 5937 5935 5934 5935 5938 5938 5920 5922 5930 5929 5928 5927 5927 5928 5928 5929 5929 5930 5930 5931 5932 5934 5937 5939 5941 5942 5943 5944 5944 5943 5943 5943 5943 5942 5942 5942 5942 5943 5943 5942 5941 5941 5941 5940 5941 5940 5939 5938
5936 5933 5934 5933 5934 5938 5937 5929 5927 5929 5928 5928 5927 5927 5928 5928 5928 5929 5929 5930 5931 5933 5934 5936 5938 5940 5942 5943 5943 5943 5943 5943 5943 5943 5942 5942 5942 5942 5943 5943 5942 5942 5941 5941 5941 5940 5940 5939 5938
5931 5934 5935 5936 5937 5938 5938 5931 5910 5931 5929 5929 5928 5927 5927 5928 5929 5929 5930 5931 5932 5933 5934 5935 5937 5940 5941 5942 5942 5943 5943 5943 5943 5942 5942 5942 5942 5943 5943 5943 5943 5943 5943 5943 5942 5941 5940 5939 5939
5931 5934 5940 5942 5943 5935 5938 5927 5922 5931 5932 5931 5930 5928 5927 5927 5928 5930 5931 5931 5932 5933 5935 5936 5937 5939 5940 5941 5941 5941 5942 5943 5944 5943 5943 5944 5944 5944 5945 5945 5944 5944 5943 5943 5942 5940 5938 5937 5937
5937 5938 5940 5941 5942 5937 5937 5931 5930 5932 5933 5933 5930 5929 5928 5927 5926 5929 5931 5931 5932 5933 5934 5935 5936 5938 5939 5940 5940 5940 5941 5942 5943 5943 5944 5944 5944 5945 5945 5945 5945 5945 5944 5942 5940 5938 5935 5934 5935
5931 5935 5938 5938 5940 5940 5933 5922 5923 5930 5933 5932 5931 5929 5928 5928 5929 5930 5931 5931 5932 5932 5933 5934 5935 5935 5937 5938 5938 5939 5941 5942 5943 5943 5943 5944 5944 5944 5945 5945 5944 5944 5943 5942 5940 5939 5936 5935 5935
5926 5932 5937 5938 5939 5939 5934 5919 5924 5929 5933 5932 5931 5930 5930 5929 5930 5930 5931 5931 5932 5932 5933 5933 5933 5934 5935 5936 5937 5938 5939 5941 5941 5942 5942 5943 5943 5944 5945 5944 5944 5943 5942 5940 5939 5938 5937 5936 5935
5927 5929 5933 5937 5937 5938 5938 5927 5928 5930 5932 5931 5931 5931 5931 5931 5930 5930 5930 5930 5931 5930 5930 5930 5931 5932 5933 5935 5936 5937 5938 5939 5940 5940 5941 5942 5942 5943 5944 5943 5942 5942 5940 5939 5937 5936 5936 5935 5933
5924 5929 5932 5936 5937 5935 5934 5928 5927 5928 5929 5929 5930 5930 5931 5931 5931 5930 5929 5929 5928 5929 5929 5929 5928 5930 5931 5933 5935 5936 5937 5938 5938 5939 5939 5940 5941 5942 5943 5942 5942 5941 5939 5937 5937 5936 5934 5932 5929
Wind_Speed
17 16 16 14 10 11 9 8 8 5 4 5 6 6 10 13 14 18 16 18 13 21 25 26 34 32 29 25 23 22 23 22 21 19 19 19 19 16 14 14 13 12 14 15 14 13 14 16 14
14 15 13 12 20 8 8 7 7 7 5 5 6 6 6 11 4 9 17 13 11 23 34 35 34 32 29 26 23 22 21 22 21 20 19 18 17 17 16 14 12 13 13 13 13 13 13 15 14
15 17 14 13 9 9 8 7 7 5 4 6 7 9 9 8 8 8 11 10 17 26 26 26 25 25 27 24 25 24 22 21 20 19 18 17 17 15 13 13 12 13 11 12 12 12 13 13 14
15 15 10 16 13 9 8 8 7 5 3 5 8 8 9 10 9 14 20 20 22 26 25 34 27 20 28 24 22 22 21 20 19 18 17 16 14 13 11 11 11 12 10 10 11 10 12 12 12
12 16 8 8 10 9 10 9 8 9 7 2 1 3 8 7 10 18 25 25 21 20 22 23 24 23 26 24 23 22 20 20 19 18 15 13 12 11 10 9 8 8 8 9 9 9 10 11 11
9 17 13 2 9 9 10 10 11 11 8 5 3 2 7 7 5 10 27 23 22 22 19 19 20 21 23 22 22 23 23 21 17 17 14 12 10 9 8 7 6 5 6 6 6 6 7 8 9
14 12 7 10 9 9 10 10 10 9 5 6 4 3 8 11 6 8 28 27 24 20 18 15 19 19 21 20 20 20 20 19 15 14 14 13 10 7 5 5 6 4 4 4 4 4 5 6 7
7 6 9 11 9 9 10 11 9 8 8 7 5 0 9 15 11 11 24 24 21 24 16 16 15 18 19 19 17 17 16 16 14 13 11 9 7 4 3 3 4 4 4 3 2 2 3 4 6
2 20 7 5 12 7 9 10 9 10 10 8 4 4 12 20 18 12 25 23 21 20 18 13 14 15 17 17 16 15 14 13 12 10 8 6 4 3 2 3 3 4 4 3 2 1 2 3 5
11 18 3 5 8 3 7 9 9 10 10 10 5 6 10 22 22 19 21 23 20 20 18 18 15 16 15 15 15 13 12 12 10 9 8 4 2 2 3 3 5 5 4 4 3 2 1 3 5
7 4 3 5 3 6 8 7 7 10 9 11 9 7 9 21 22 20 20 21 19 18 16 16 15 15 15 14 13 12 10 9 9 7 4 1 1 2 3 4 5 6 6 7 7 6 7 1 2
15 8 6 8 6 6 8 7 8 9 7 10 11 7 11 20 22 18 19 19 18 16 15 15 14 13 12 11 11 10 8 7 7 6 5 2 2 2 1 3 4 5 13 11 8 7 6 4 5
11 13 6 11 4 6 8 7 6 7 6 7 11 9 11 19 19 16 15 15 15 14 13 14 14 12 12 11 10 9 8 7 6 5 4 3 2 3 4 7 7 6 7 12 12 11 10 10 7
14 17 16 11 7 8 7 8 6 6 6 7 9 10 7 14 19 16 15 15 15 15 14 14 14 12 10 9 9 8 8 6 4 4 3 3 4 5 6 7 8 10 12 11 9 10 10 6 6
14 17 16 15 11 8 5 8 7 6 5 6 8 9 8 8 11 14 14 12 11 11 11 11 10 9 8 6 6 7 7 5 4 3 3 2 4 6 6 8 8 9 13 10 4 4 5 6 2
18 14 14 14 14 9 5 13 8 6 4 5 8 10 9 7 9 11 11 11 9 9 8 9 8 7 5 5 5 5 4 3 3 1 1 1 2 3 5 6 8 12 13 14 12 14 11 5 3
7 5 6 10 13 13 8 2 7 6 5 4 6 9 10 9 6 9 10 11 9 8 8 8 8 7 5 4 4 3 3 2 0 1 1 2 1 1 1 3 8 11 13 13 13 13 12 11 9
1 5 5 5 8 10 7 6 7 8 7 6 5 6 8 8 8 7 9 9 8 8 7 7 8 7 5 4 4 3 2 1 1 2 2 3 4 3 1 3 7 8 10 11 12 12 11 9 10
5 4 3 3 4 7 9 6 6 7 8 6 4 5 5 8 9 8 7 9 9 8 8 8 8 7 3 3 4 3 1 1 3 4 3 3 5 3 1 3 4 6 7 9 9 10 9 9 9
4 6 3 5 5 6 7 8 9 9 8 6 4 3 4 5 7 10 11 9 8 7 7 7 8 6 4 5 3 1 1 3 5 3 4 5 2 2 5 3 3 3 3 4 4 4 5 5 6
5 6 3 3 2 2 7 3 12 13 10 7 5 1 2 4 6 7 9 9 8 9 7 7 5 4 4 5 3 3 3 5 5 3 4 2 4 6 4 3 3 3 1 1 2 3 3 3 2
4 14 7 2 3 6 6 9 12 10 10 8 3 4 2 2 5 7 7 9 9 8 8 8 7 5 6 6 4 5 6 4 1 2 2 4 4 3 3 3 3 1 1 2 3 3 2 3 4
10 14 11 7 1 5 7 17 4 9 10 10 9 1 6 3 4 7 8 8 8 9 9 8 7 6 7 6 7 7 7 5 2 4 4 4 4 4 4 4 1 2 4 5 6 5 5 4 4
9 7 8 3 5 9 9 13 16 9 10 13 11 7 6 4 4 6 7 7 6 8 9 10 9 7 8 9 8 8 6 5 4 6 6 6 6 5 6 4 2 6 7 8 10 10 10 9 7
2 4 5 9 8 12 2 14 18 6 9 11 12 10 2 6 8 5 5 7 8 9 10 9 8 7 8 10 9 8 6 5 7 8 8 7 6 6 5 3 3 9 9 11 12 13 15 14 10
10 6 7 5 5 9 5 17 8 6 8 7 10 11 2 4 10 4 5 5 6 8 9 9 7 7 10 11 10 7 6 6 8 9 9 8 8 6 5 5 7 10 13 16 14 18 13 12 11
4 3 8 9 7 7 15 8 9 4 9 7 8 8 7 2 10 4 3 4 7 9 10 10 9 8 9 10 11 8 8 8 9 11 11 10 8 8 6 6 8 12 14 15 13 14 13 7 4
12 13 2 2 6 8 20 6 5 13 12 8 6 6 6 3 8 6 6 5 6 9 11 11 8 7 5 6 8 8 8 10 10 11 11 10 10 9 8 9 10 12 14 15 17 19 19 14 14
9 6 9 7 11 8 8 14 15 17 20 11 7 5 3 3 7 7 7 8 8 8 10 12 10 8 7 8 9 9 8 10 10 10 11 11 10 10 9 11 12 14 16 15 18 18 18 20 21
15 10 13 3 10 10 10 15 18 19 21 16 10 5 5 5 3 3 5 5 7 10 13 13 13 12 13 12 11 11 10 11 12 12 13 14 13 12 10 11 13 14 16 18 19 21 23 24 26
Wind_Direction
92 93 95 83 87 104 132 147 158 157 178 195 208 205 202 186 188 198 203 206 204 170 163 157 144 136 132 132 130 126 120 115 117 114 112 110 111 113 114 107 98 102 94 85 73 72 70 53 58
103 101 95 92 81 86 125 139 148 143 147 183 224 220 204 203 199 217 182 187 197 163 145 140 140 133 132 136 130 124 116 114 114 118 114 113 111 111 113 101 97 102 92 84 76 72 64 60 58
104 95 90 84 128 107 113 112 115 121 150 197 216 216 219 220 181 144 157 182 188 168 126 115 121 135 132 132 130 125 122 119 116 117 118 115 115 117 107 98 96 99 90 80 76 72 64 62 60
96 93 59 72 102 98 105 99 96 97 124 204 209 207 192 189 173 156 130 117 112 132 133 127 122 135 128 129 125 121 120 123 121 119 118 117 120 121 116 110 101 97 95 85 77 71 65 60 57
95 101 135 42 76 76 88 78 82 98 111 138 253 161 164 171 192 161 130 123 121 122 123 139 145 141 126 130 124 114 119 130 124 117 115 119 117 115 116 113 110 99 93 84 73 66 66 62 55
88 102 69 87 71 72 74 78 74 85 81 65 60 104 132 125 186 154 138 130 129 123 127 130 131 130 129 129 121 116 123 128 123 124 124 118 115 109 109 106 103 93 89 80 76 63 56 63 60
77 59 134 89 80 75 75 84 74 64 49 32 36 129 145 124 103 107 148 133 131 131 127 130 131 132 135 130 126 125 129 127 127 123 119 118 107 92 86 93 100 102 83 70 70 60 43 42 45
97 80 110 86 76 90 86 91 83 46 31 21 16 103 157 137 130 118 141 129 132 144 135 132 141 139 132 135 133 131 130 131 130 124 128 116 97 75 67 47 57 85 76 60 57 45 39 39 35
158 119 89 101 105 76 99 97 80 59 42 26 26 100 168 137 134 125 131 132 133 124 137 144 146 133 136 139 134 140 138 136 136 139 131 117 88 70 45 10 10 38 47 42 25 21 8 9 11
345 63 91 81 38 87 119 111 90 70 47 43 42 109 160 142 135 134 141 138 141 149 152 161 151 142 140 144 143 147 146 147 152 144 134 107 130 87 60 9 354 354 359 352 325 304 356 10 8
42 323 225 156 98 130 136 119 100 75 48 55 46 105 158 151 135 142 147 141 145 145 147 154 153 149 150 151 152 153 153 159 151 146 170 164 54 85 48 24 11 351 329 308 283 280 278 311 307
18 29 132 137 112 106 111 117 97 88 63 63 70 94 154 151 137 144 144 144 141 145 148 152 156 156 155 157 155 156 148 155 147 160 161 124 92 28 65 9 2 356 335 302 277 259 255 266 324
55 46 137 87 85 70 89 97 102 92 80 64 76 88 146 142 141 143 142 137 137 142 151 156 159 160 167 166 162 160 149 163 161 164 118 104 62 50 36 11 359 345 308 298 279 277 255 263 292
67 63 56 41 35 41 72 85 93 100 98 91 87 89 118 140 143 146 143 144 149 151 156 161 164 163 169 164 161 155 163 166 167 132 137 87 47 43 31 7 11 1 338 310 264 278 255 223 260
61 58 49 45 25 26 75 81 78 95 106 115 111 102 102 114 133 141 143 143 144 146 155 159 160 164 164 155 155 169 167 170 159 152 83 41 38 33 29 23 26 16 15 17 353 314 267 124 139
26 40 15 26 28 31 295 59 62 79 112 131 132 124 118 125 132 134 138 142 145 148 156 162 164 164 165 174 181 179 178 160 143 132 29 21 25 21 30 36 44 46 44 48 71 61 93 76 64
28 33 341 2 27 27 85 62 47 55 75 108 132 137 138 137 141 141 139 140 145 152 160 167 170 170 181 192 181 185 144 107 43 346 343 316 311 304 16 62 55 49 52 63 62 63 66 60 53
166 65 35 340 16 39 35 41 23 31 35 75 105 137 149 151 146 151 147 146 156 167 173 181 184 186 199 194 172 154 143 117 45 342 340 307 278 273 326 71 66 63 59 57 65 67 70 67 63
121 76 26 354 352 33 52 42 26 17 22 38 85 111 146 159 163 162 166 166 170 182 191 196 198 203 217 154 151 154 141 333 335 313 316 318 289 272 231 95 78 61 61 58 58 63 66 71 63
103 33 300 343 312 16 21 24 26 24 13 355 20 99 143 168 181 182 181 184 178 179 190 205 207 213 216 179 170 235 292 319 326 338 18 337 264 225 155 125 101 99 88 69 57 58 47 55 53
257 198 195 230 240 38 340 3 12 1 9 354 315 278 138 190 191 203 206 203 199 200 200 202 215 225 221 198 215 268 289 307 312 293 304 321 151 154 144 140 115 83 45 39 20 29 16 33 17
269 239 210 193 26 332 288 315 56 6 18 23 358 248 247 208 222 211 208 209 217 215 209 209 211 198 199 211 245 264 273 299 292 322 214 167 146 137 161 152 150 132 340 344 327 331 348 341 325
220 208 206 186 111 301 297 287 65 35 30 30 37 209 215 228 246 223 212 217 222 214 207 202 203 194 206 232 251 253 263 262 225 164 175 175 172 181 178 191 204 337 350 327 318 305 311 308 320
223 133 56 13 339 247 307 267 167 23 27 24 32 38 216 231 235 214 214 225 228 221 216 205 203 199 225 235 238 253 257 258 199 192 193 197 190 185 203 217 331 353 335 335 326 317 307 305 316
225 36 8 280 257 329 311 292 78 9 5 3 14 28 45 212 182 202 209 214 216 212 213 213 217 226 241 244 247 251 244 232 199 208 218 212 211 217 236 276 327 356 358 357 344 329 306 291 284
258 249 184 215 300 266 314 248 226 1 333 346 342 5 13 142 114 198 203 220 246 236 222 217 210 236 257 259 255 250 235 211 209 215 225 230 225 242 258 295 332 339 353 349 348 344 329 292 284
191 308 253 231 276 221 253 89 155 2 321 325 339 359 19 201 176 204 236 269 251 239 231 227 231 239 252 261 253 230 211 211 218 231 234 225 240 253 268 309 332 343 344 352 356 359 17 21 300
217 219 156 283 222 228 245 55 320 321 304 313 317 7 26 178 182 236 251 256 263 252 252 246 241 245 245 240 220 197 203 219 226 233 237 243 248 253 277 304 320 339 348 346 347 346 345 341 331
240 229 188 203 206 219 282 254 270 277 286 283 287 309 36 60 216 233 252 268 274 272 264 261 251 226 210 209 214 200 197 212 217 230 250 254 252 259 276 293 308 327 333 337 339 335 335 324 323
176 195 194 232 254 251 217 286 271 275 277 265 259 269 293 310 331 262 230 256 266 272 271 263 257 241 218 208 218 218 210 219 228 241 253 256 260 265 272 285 301 315 319 326 331 335 333 326 315